Weather History for Johnstown, PA

Change the Weather History Date:

Sunday, November 28, 2010

  Actual Average Record
Temperature  
Mean Temperature 28 °F 34 °F  
Max Temperature 36 °F 40 °F 77 °F (1990)
Min Temperature 21 °F 28 °F 9 °F (1930)
Degree Days  
Heating Degree Days 36 31  
Month to date heating degree days 701  
Since 1 July heating degree days 1394  
Cooling Degree Days 0 0  
Month to date cooling degree days 0  
Year to date cooling degree days 382  
Moisture  
Dew Point 19 °F    
Average Humidity 68    
Maximum Humidity 86    
Minimum Humidity 52    
Precipitation  
Precipitation 0.00 in 0.13 in 1.89 in (1921)
Month to date precipitation 3.43  
Year to date precipitation 30.78  
Sea Level Pressure  
Sea Level Pressure 30.33 in    
Wind  
Wind Speed 5 mph (SW)    
Max Wind Speed 9 mph    
Max Gust Speed -    
Visibility 10 miles    
Events      
T = Trace of Precipitation, MM = Missing Value Source: NWS Daily Summary

Daily Weather History Graph

Daily Weather History Graph

Search for Another Location

Airport:

Trip Planner

Search our weather history database for the weather conditions in past years. The results will help you decide how hot, cold, wet, or windy it might be!

Date:

Astronomy

Nov. 28, 2010 Rise Set
Actual Time 7:15 AM EST 4:50 PM EST
Civil Twilight 6:45 AM EST 5:20 PM EST
Nautical Twilight 6:12 AM EST 5:54 PM EST
Astronomical Twilight 5:39 AM EST 6:26 PM EST
Moon No Moon Rise 12:22 PM EST (11/28)
Length of Visible Light 10h 34m
Length of Day
9h 34m
Waning Gibbous, 52% of the Moon is Illuminated
Nov 28
Waning Gibbous
Nov 28
Last Quarter
Dec 5
New
Dec 13
First Quarter
Dec 21
Full

Hourly Weather History & Observations

Time (EST) Temp. Windchill Dew Point Humidity Pressure Visibility Wind Dir Wind Speed Gust Speed Precip Events Conditions
12:54 AM 25.0 °F 17.1 °F 18.0 °F 75% 30.20 in 10.0 mi West 6.9 mph - N/A   Overcast
1:54 AM 25.0 °F 18.1 °F 18.0 °F 75% 30.22 in 10.0 mi West 5.8 mph - N/A   Overcast
2:54 AM 25.0 °F 18.1 °F 18.0 °F 75% 30.24 in 10.0 mi WSW 5.8 mph - N/A   Overcast
3:54 AM 25.0 °F 19.3 °F 18.0 °F 75% 30.25 in 10.0 mi WSW 4.6 mph - N/A   Overcast
4:54 AM 24.1 °F 17.0 °F 18.0 °F 77% 30.27 in 10.0 mi SW 5.8 mph - N/A   Overcast
5:54 AM 21.9 °F 12.5 °F 17.1 °F 82% 30.30 in 10.0 mi WSW 8.1 mph - N/A   Mostly Cloudy
6:54 AM 23.0 °F 15.8 °F 18.0 °F 81% 30.33 in 10.0 mi SW 5.8 mph - N/A   Overcast
7:29 AM 21.2 °F 14.9 °F 17.6 °F 86% 30.24 in 10.0 mi SW 4.6 mph - N/A   Scattered Clouds
7:54 AM 21.9 °F 15.7 °F 17.1 °F 82% 30.34 in 10.0 mi SSW 4.6 mph - N/A   Clear
8:54 AM 24.1 °F 17.0 °F 18.0 °F 77% 30.36 in 10.0 mi SW 5.8 mph - N/A   Clear
9:54 AM 27.0 °F 23.0 °F 19.0 °F 72% 30.37 in 10.0 mi West 3.5 mph - N/A   Clear
10:54 AM 30.0 °F - 19.0 °F 64% 30.37 in 10.0 mi Calm Calm - N/A   Clear
11:54 AM 30.9 °F 25.2 °F 19.0 °F 61% 30.36 in 10.0 mi WSW 5.8 mph - N/A   Clear
12:54 PM 33.1 °F 27.7 °F 19.9 °F 59% 30.35 in 10.0 mi South 5.8 mph - N/A   Clear
1:54 PM 34.0 °F 29.8 °F 19.9 °F 56% 30.35 in 10.0 mi West 4.6 mph - N/A   Clear
2:54 PM 35.1 °F - 19.0 °F 52% 30.34 in 10.0 mi Calm Calm - N/A   Clear
3:54 PM 36.0 °F 33.3 °F 19.9 °F 52% 30.35 in 10.0 mi West 3.5 mph - N/A   Clear
4:54 PM 35.1 °F - 19.0 °F 52% 30.36 in 10.0 mi Calm Calm - N/A   Clear
5:54 PM 30.9 °F - 19.0 °F 61% 30.38 in 10.0 mi Calm Calm - N/A   Clear
6:54 PM 30.0 °F 24.1 °F 19.0 °F 64% 30.38 in 10.0 mi SSE 5.8 mph - N/A   Clear
7:54 PM 30.0 °F 24.1 °F 19.0 °F 64% 30.38 in 10.0 mi SSE 5.8 mph - N/A   Clear
8:54 PM 30.0 °F 21.7 °F 19.0 °F 64% 30.37 in 10.0 mi SSE 9.2 mph - N/A   Clear
9:54 PM 30.0 °F 25.2 °F 19.0 °F 64% 30.38 in 10.0 mi SSW 4.6 mph - N/A   Clear
11:54 PM 28.0 °F 20.0 °F 19.0 °F 69% 30.37 in 10.0 mi South 8.1 mph - N/A   Clear